200 serials | updatemydrivers registration key serial

Date Name Success Rate
2012-12-13 07:16:54 Serial updatemydrivers 7.0 52%
2012-12-13 15:23:41 UpdateMyDrivers 57%
2011-09-08 10:42:09 DAS Registration 1.5.2 60%
2011-09-08 10:42:09 DAS Registration For CW5 0%
2011-09-08 10:42:09 DAS Registration v1.5.2 0%
2009-10-17 06:27:02 Lazarus Registration DLL V1.0 55%
2009-10-22 23:48:48 MemoriesonTV Registration 0%
2009-10-22 23:49:42 Registration Wizard 68%
2011-09-08 10:06:47 AnetHelpTool v4.02 Registration 52%
2011-09-08 10:22:13 ByeLines Registration 89%
2011-09-08 10:57:42 Ftgate Registration 82%
2011-09-08 11:15:16 Infodex v2.10 Registration 45%
2011-09-08 11:25:08 Lazarus Registration DLL v1.0 47%
2011-09-08 11:27:46 Mac Opener v3.0 Registration 57%
2011-09-08 11:32:59 mIRC v4.5+ Registration 35%
2011-09-08 11:32:59 mIRC v4.52 Registration 51%
2011-09-08 12:37:02 Quant v2.0 Registration 52%
2011-09-08 12:41:14 Registration Suite 1.0 56%
2011-09-08 12:41:14 Registration Suite v1.0 60%
2011-09-08 12:41:14 Registration Wizard Pro 5.01 46%
2011-09-08 12:41:14 Registration Wizard Pro v5.01 60%
2011-09-08 13:18:59 WinHacker 95 v2.02 Registration 57%
2012-12-13 05:12:00 Registration Key : 526EFEF086E09600449E667EA2DAE8E2E6D642BC 65%
2009-10-22 23:27:21 Ardamax Keylogger 2.9 Registration 56%
2009-10-22 23:48:49 Microsoft Registration Hacker - 39%
2009-10-22 23:49:57 SoudForge ALL (No Registration Requiered) 0%
2009-10-22 23:50:26 Valve's Registration Armor Key-Gen 60%
2011-09-08 10:21:42 Browserola v1.01 Temp. Registration 0%
2011-09-08 10:56:11 FontLook v3.1 Registration Code 70%
2011-09-08 11:31:51 Microsoft Registration Hacker 0%
2011-09-08 11:31:51 Microsoft Registration Hacker - 0%
2011-09-08 11:31:51 Microsoft Registration HackerMSREGHACK 0%
2011-09-08 11:32:07 Microstation v5.xx.xx & 95 FULL REGISTRATION 73%
2011-09-08 11:42:43 Nic O'Matic 1.6 Registration Code 65%
2011-09-08 11:42:43 Nic O'Matic v1.6 Registration Code 52%
2011-09-08 12:34:57 PolyTrans V1.2E Registration Activator CD-Key 65%
2011-09-08 12:34:57 PolyView v2.9b16 Registration 0%
2011-09-08 12:54:09 Time Registration (German) 1.10 0%
2011-09-08 12:59:30 Super Collapse Registration 94%
2011-09-08 13:23:15 Yipe! II for Windows Registration #154 0%
2012-12-13 08:49:53 Softwarenetz Time Registration v1.10 0%
2012-12-13 08:49:56 Softwarenetz Time Registration v1.14 0%
2012-12-13 15:34:10 Valve's Registration Armor Key-Gen 0%
2009-10-22 23:48:17 Internet Download Manager Registration 55%
2011-09-08 10:25:56 Cheyenne Bitware V4.0 Registration Number 66%
2011-09-08 11:31:51 Microsoft Registration Hacker MSREGHACK 69%
2011-09-08 11:31:51 Microsoft Visual Basic 5 registration cd key 72%
2011-09-08 12:54:14 TimeSlips 10.5 enterprise - with registration code! 0%
2012-12-12 08:07:32 Download avast 5.0.667 Antivirus registration 0%
2012-12-13 05:12:00 Registration Code For PDFZilla Giveaway 42%
2012-12-13 05:12:00 Registration key for x-3gp-video-converter-38540 78%
2012-12-13 13:12:40 Total Image Converter Registration Key 56%
2011-09-08 11:30:16 MediaBlaze 98 v1.01 Win95/NT User: delphic Registration 0%
2012-12-13 05:12:00 Registration code:-826510-16101-266644 54%
2009-10-22 23:49:02 Norton Internet Security 2005 Registration Guide 0%
2011-09-08 09:58:40 Acoustica Mixcraft v1.10 Build 15 Registration Info by MaBi 60%
2012-12-12 19:40:26 Microsoft Visual Basic 2008 Express Edition Registration key 50%
2009-10-23 07:01:25 3ds Max 9 Serial 68%
2009-10-22 23:27:28 AVG 7.0.308 (21.04.05)Serial 21%
2009-10-22 23:27:28 AVG 7.5.516 Serial 32%
2009-10-22 23:44:51 BRD Serial 64%
2009-10-22 23:49:52 Serial Box 0.6.1 62%
2011-09-08 12:46:52 Serial Box 0.6.1 62%
2011-09-08 12:46:52 Serial Box v0.6 1 66%
2012-12-12 02:38:05 ATA serial 40%
2012-12-12 03:59:50 BFH Serial 76%
2012-12-12 13:40:38 GTA IV Serial 69%
2012-12-13 07:14:39 Serial HD 65%
2009-10-17 06:18:30 AggPub 1.0 SERIAL 56%
2009-10-17 06:18:31 Air Messenger Serial V3.7.6 14%
2009-10-17 06:18:52 AquaAngel 3D SERIAL 59%
2009-10-17 06:18:52 AquaButterfly 3D SERIAL 62%
2009-10-17 06:18:52 AquaCoral 3D SERIAL 44%
2009-10-17 06:18:52 AquaFish2.3D SERIAL 51%
2009-10-17 06:18:52 AquaScreen 3D SERIAL 32%
2009-10-17 06:18:52 AquaScreen2.3D SERIAL 58%
2009-10-17 06:18:52 AquaSea 3D SERIAL 51%
2009-10-17 06:18:52 AquaSirene 3D SERIAL 11%
2009-10-17 06:19:08 Avast!.4.6.691 SERIAL 63%
2009-10-17 06:19:28 BD Gest 5.2.2 SERIAL 54%
2009-10-17 06:20:14 CDRipper V2.85 SERIAL 14%
2009-10-17 06:20:25 CleanMantra Ver 1.5 SERIAL 57%
2009-10-17 06:20:25 Cleant It 3.06.11.28 SERIAL 28%
2009-10-17 06:20:38 Compt In V4.0.1 SERIAL 20%
2009-10-17 06:20:39 CopyRator 1.4 SERIAL 23%
2009-10-17 06:21:18 Delenda 2.4.14 SERIAL 72%
2009-10-17 06:21:25 Desktoplet 1.0 SERIAL 47%
2009-10-17 06:21:32 Diondine 5.0 SERIAL 61%
2009-10-17 06:22:21 Espion Pro V6.1.6 SERIAL 66%
2009-10-17 06:22:59 Filerecoveryangel 1.1 SERIAL 37%
2009-10-17 06:22:59 Find It Pro 4.01.11.29 SERIAL 57%
2009-10-17 06:23:00 FishPond SERIAL 20%
2009-10-17 06:23:07 FullDisk V5.3 SERIAL 65%
2009-10-17 06:23:45 GoGoldfish 1.0 SERIAL 21%
2009-10-17 06:23:45 Goleador 5.1 SERIAL 45%
2009-10-17 06:25:01 ICONStudio 5.0 SERIAL 0%
2009-10-17 06:25:01 II Calendar V2.6 SERIAL 0%
2009-10-17 06:25:01 II ColorPicker V2.0 SERIAL 0%
2009-10-17 06:25:01 II QuickMemo V1.5 SERIAL 0%
2009-10-17 06:25:01 II WorkLog4All V4.50 SERIAL 60%
2009-10-17 06:25:01 II WorkProject V4.41 SERIAL 0%
2009-10-17 06:25:01 II WorkProjectPro V2.32 SERIAL 0%
2009-10-17 06:25:01 II WorkSchedule V5.21 SERIAL 54%
2009-10-17 06:25:01 II WorkTimeCloks V1.5 SERIAL 0%
2009-10-17 06:25:11 IncrediZoom 10 SERIAL 30%
2009-10-17 06:25:48 J-Perk 7.0 SERIAL 0%
2009-10-17 06:25:48 Jeroboam 5.11 SERIAL 53%
2009-10-17 06:25:48 Jerrycan 6.25 SERIAL 10%
2009-10-17 06:27:05 Loto V1.40 SERIAL 55%
2009-10-17 06:27:05 Loto V1.41 SERIAL 53%
2009-10-17 06:27:05 Loto V1.42 SERIAL 53%
2009-10-17 06:27:46 Magic 3D 2.1 SERIAL 52%
2009-10-17 06:27:46 MagicTweak 2.90 SOME-SERIAL 59%
2009-10-17 06:27:56 MeMeCats 1.0 SERIAL 0%
2009-10-17 06:28:04 MP3 Converter Pro 4.1 SERIAL 0%
2009-10-17 06:28:04 MP3Coder V1.65 SERIAL 0%
2009-10-17 06:28:08 MURENES SERIAL 33%
2009-10-17 06:29:19 One-to-One Meetings V1.0.10 SERIAL 0%
2009-10-17 06:29:58 Palette V3.2 SERIAL 0%
2009-10-17 06:29:58 Part It V3.01.12.01 SERIAL 0%
2009-10-17 06:29:59 PC Watcher 1.0 SERIAL 58%
2009-10-17 06:30:06 PhotoToFilm V2.5.0.56 SERIAL 20%
2009-10-17 06:30:07 Picturecollagesoftware SERIAL 51%
2009-10-17 06:30:11 PolyView 4.28 SERIAL 0%
2009-10-17 06:30:18 Print It 1.04.02.08 SERIAL 0%
2009-10-17 06:30:19 PuzzleFX 2.0.(3.0) SERIAL 73%
2009-10-17 06:31:33 REQUINS SERIAL 9%
2009-10-17 06:31:33 RippedRadio 2.01 SERIAL 0%
2009-10-17 06:32:11 ScanToEmail 3.13 SERIAL 0%
2009-10-17 06:32:11 ScanToPDF 3.13 SERIAL 35%
2009-10-17 06:32:15 SDAquarium 3D SERIAL 0%
2009-10-17 06:32:15 ShowMe 1.8 SERIAL 53%
2009-10-17 06:32:15 Shred It 1.01.11.28 SERIAL 0%
2009-10-17 06:32:40 Spy Stalker 1.0.1 SERIAL 0%
2009-10-17 06:32:40 Stamp It 5.01.11.28 SERIAL 0%
2009-10-17 06:33:27 TORTUES SERIAL 13%
2009-10-17 06:35:38 Watcher 2.30 SERIAL 25%
2009-10-17 06:35:38 WATTERFALL 3D SERIAL 0%
2009-10-17 06:35:38 WatterFallGreat 3D SERIAL 0%
2009-10-17 06:35:38 Web Confidential 3.1.0.0 SERIAL 60%
2009-10-17 06:35:44 Willing Webcam 2.8 SERIAL 67%
2009-10-17 06:35:44 Willing Webcam 3.0 SERIAL 35%
2009-10-17 06:35:48 Wipe It 1.01.11.28 SERIAL 0%
2009-10-17 06:35:49 WordFree PDF V1.1.0.2 SERIAL 0%
2009-10-22 23:27:13 Ad-Aware PRO 7 Serial 50%
2009-10-22 23:27:15 Age Of Mythology Serial [Sum Up] 43%
2009-10-22 23:27:16 Air Messenger Serial V3.7.6 0%
2009-10-22 23:27:16 Air Messenger Serial V4.0 0%
2009-10-22 23:27:27 Avast Pro Serial 72%
2009-10-22 23:27:27 AVG 6.0 Original Serial 40%
2009-10-22 23:44:49 BitDefender_Internet_Security_v.10+Serial 0%
2009-10-22 23:45:49 Carrara 4 Pro Serial 0%
2009-10-22 23:45:52 CloneCD 4.9 (SERIAL) 0%
2009-10-22 23:46:26 DFX 8.5 Working Serial 62%
2009-10-22 23:46:27 Die Sims 2 Serial 0%
2009-10-22 23:46:29 DSJ 3 1.4.0 Serial Work!! 0%
2009-10-22 23:47:51 Finalcut Pro 5.1 Serial 56%
2009-10-22 23:47:53 FREE SERIAL AVG 8.138 87%
2009-10-22 23:47:59 Gangland Serial 0%
2009-10-22 23:48:07 HelpBlocks 1.21 Serial 0%
2009-10-22 23:48:18 IsoBuster 2.5 Serial 40%
2009-10-22 23:48:18 IuVCR Serial (ver. 4.8.6.337) 77%
2009-10-22 23:48:37 LCG Jukebox 2.10+ Serial 56%
2009-10-22 23:48:50 MobiMB 2.2 Serial 0%
2009-10-22 23:48:53 MUSICMATCH 7.5(4 Serial No's) 0%
2009-10-22 23:48:59 Nero 7.9.6.0 Serial 75%
2009-10-22 23:49:01 No #1 DVD Ripper SE 1.3.39 Serial 67%
2009-10-22 23:49:01 NOD32 2.12.3 May Serial 64%
2009-10-22 23:49:11 O&o Driverled Serial V2 63%
2009-10-22 23:49:12 Onimusha 3 Serial 51%
2009-10-22 23:49:13 Opera Serial 7.54 0%
2009-10-22 23:49:22 Photoshop CS2 Serial 59%
2009-10-22 23:49:23 Picturecollagesoftware SERIAL.txt 0%
2009-10-22 23:49:26 PowerISO 4.3 + Serial 8%
2009-10-22 23:49:35 QuickTime Pro V7.0 Serial 20%
2009-10-22 23:49:42 Regcure Serial 49%
2009-10-22 23:49:52 Serial AlZip 7.4 84%
2009-10-22 23:49:52 Serial Box 01.2005 0%
2009-10-22 23:49:52 Serial Link 3.0 0%
2009-10-22 23:49:52 Serial SilverScreen 3.4.9 0%
2009-10-22 23:49:52 Serious Sam 2 Serial By KillPhill /203-451-384/ 0%
2009-10-22 23:50:08 Tag Rename V3.4 Serial 0%
2009-10-22 23:50:13 Typograf 4.8f New Serial 58%
2009-10-22 23:50:35 Winamp 5.xx Serial 36%
2009-10-22 23:50:36 Windows 7 32&64 Serial 62%
2009-10-22 23:50:38 WinZip 11.0 Pro Serial 79%
2011-09-08 10:02:05 Age Of Mythology Serial [Sum Up] 0%
2011-09-08 10:13:03 AVG v6.0 original serial 0%
2011-09-08 11:02:25 Get Disk Serial 2.0.0 79%
2011-09-08 12:27:05 Opera serial 7.54 0%
2011-09-08 12:46:52 Serial Box 01.2005 0%
2011-09-08 12:46:52 Serial I/O Toolkit 8.2i 82%
2011-09-08 12:46:52 Serial Link 3.0 0%
2011-09-08 12:46:52 Serial Link v1.0 64%
2011-09-08 12:46:52 Serial Splitter 0%
2011-09-08 12:46:52 Serial Splitter v2.0.526 0%
2012-12-12 03:15:56 Avast Serial Key 84%
2012-12-12 04:13:49 Bioshock Serial 41%
2012-12-12 11:46:00 Fifa 09 Serial 0%
2012-12-12 16:06:11 IVT.BlueSoleil.6 serial 52%